| time (UTC) | temp F | wind direction | speed knots | gust knots | rain 1hr in | rain 24hr in | rain mn in | humidity % | barometer mb |
| 20260506004704 | 70 | 284 | 2.6 | 5.2 | 0.00 | 0.00 | 0.00 | 92 | 1015.9 |
| 20260506004204 | 70 | 297 | 1.7 | 2.6 | 0.00 | 0.00 | 0.00 | 92 | 1015.6 |
| 20260506003704 | 70 | 307 | 1.7 | 4.3 | 0.00 | 0.00 | 0.00 | 92 | 1015.9 |
| 20260506003206 | 70 | 327 | 0.9 | 4.3 | 0.00 | 0.00 | 0.00 | 92 | 1015.9 |
| 20260506002704 | 70 | 326 | 1.7 | 4.3 | 0.00 | 0.00 | 0.00 | 92 | 1015.7 |
| 20260506002204 | 70 | 261 | 0.9 | 4.3 | 0.00 | 0.00 | 0.00 | 92 | 1015.7 |
| 20260506001704 | 70 | 248 | 2.6 | 4.3 | 0.00 | 0.00 | 0.00 | 92 | 1015.6 |
| 20260506001204 | 70 | 356 | 0.9 | 2.6 | 0.00 | 0.00 | 0.00 | 92 | 1015.6 |
| 20260506000205 | 71 | 96 | 1.7 | 4.3 | 0.00 | 0.00 | 0.00 | 91 | 1015.9 |
| 20260505235705 | 70 | 96 | 1.7 | 4.3 | 0.00 | 0.00 | 0.00 | 92 | 1015.9 |
| 20260505234204 | 70 | 342 | 1.7 | 4.3 | 0.00 | 0.00 | 0.00 | 92 | 1015.9 |
| 20260505233704 | 70 | 106 | 0.9 | 4.3 | 0.00 | 0.00 | 0.00 | 92 | 1015.9 |
| 20260505233205 | 70 | 190 | 1.7 | 4.3 | 0.00 | 0.00 | 0.00 | 92 | 1015.9 |
| 20260505232704 | 70 | 193 | 1.7 | 4.3 | 0.00 | 0.00 | 0.00 | 92 | 1015.9 |
| 20260505232204 | 70 | 29 | 1.7 | 5.2 | 0.00 | 0.00 | 0.00 | 92 | 1016.0 |
| 20260505231704 | 70 | 208 | 1.7 | 4.3 | 0.00 | 0.00 | 0.00 | 92 | 1015.9 |
| 20260505231205 | 70 | 94 | 0.9 | 4.3 | 0.00 | 0.00 | 0.00 | 92 | 1015.9 |
| 20260505230704 | 70 | 238 | 1.7 | 4.3 | 0.00 | 0.00 | 0.00 | 92 | 1015.9 |
| 20260505230204 | 70 | 283 | 1.7 | 2.6 | 0.00 | 0.00 | 0.00 | 92 | 1016.2 |
| 20260505224204 | 70 | 142 | 0.9 | 4.3 | 0.00 | 0.00 | 0.00 | 92 | 1016.3 |
| 20260505223204 | 70 | 20 | 1.7 | 4.3 | 0.00 | 0.00 | 0.00 | 92 | 1016.5 |
| 20260505222704 | 70 | 159 | 1.7 | 6.1 | 0.00 | 0.00 | 0.00 | 92 | 1016.6 |
| 20260505222204 | 70 | 332 | 0.9 | 5.2 | 0.00 | 0.00 | 0.00 | 93 | 1016.6 |
| 20260505221704 | 70 | 307 | 1.7 | 2.6 | 0.00 | 0.00 | 0.00 | 92 | 1016.6 |
| 20260505221204 | 70 | 191 | 0.9 | 5.2 | 0.00 | 0.00 | 0.00 | 92 | 1016.3 |
| 20260505220704 | 70 | 81 | 3.5 | 5.2 | 0.00 | 0.00 | 0.00 | 92 | 1016.6 |
| 20260505220204 | 70 | 305 | 1.7 | 4.3 | 0.00 | 0.00 | 0.00 | 92 | 1016.6 |
| 20260505215705 | 70 | 160 | 0.9 | 4.3 | 0.00 | 0.00 | 0.00 | 92 | 1016.7 |
| 20260505215204 | 70 | 127 | 1.7 | 4.3 | 0.00 | 0.00 | 0.00 | 92 | 1016.6 |
| 20260505214704 | 70 | 95 | 1.7 | 4.3 | 0.00 | 0.00 | 0.00 | 91 | 1016.8 |
| 20260505214204 | 70 | 339 | 0.9 | 4.3 | 0.00 | 0.00 | 0.00 | 91 | 1016.8 |
| 20260505213204 | 70 | 145 | 0.0 | 2.6 | 0.00 | 0.00 | 0.00 | 91 | 1016.8 |
| 20260505212204 | 70 | 194 | 0.0 | 1.7 | 0.00 | 0.00 | 0.00 | 90 | 1016.9 |
| 20260505211704 | 71 | 102 | 0.0 | 1.7 | 0.00 | 0.00 | 0.00 | 90 | 1017.0 |
| 20260505211205 | 70 | 239 | 0.0 | 2.6 | 0.00 | 0.00 | 0.00 | 90 | 1017.3 |
| 20260505210704 | 70 | 280 | 1.7 | 2.6 | 0.00 | 0.00 | 0.00 | 90 | 1017.2 |
| 20260505205704 | 71 | 132 | 0.0 | 1.7 | 0.00 | 0.00 | 0.00 | 89 | 1017.3 |
| 20260505205205 | 71 | 294 | 0.9 | 1.7 | 0.00 | 0.00 | 0.00 | 90 | 1017.3 |
| 20260505204704 | 71 | 57 | 0.9 | 1.7 | 0.00 | 0.00 | 0.00 | 89 | 1017.3 |
| 20260505204204 | 71 | 201 | 1.7 | 2.6 | 0.00 | 0.00 | 0.00 | 89 | 1017.3 |
| 20260505203205 | 70 | 83 | 0.9 | 2.6 | 0.00 | 0.00 | 0.00 | 89 | 1017.3 |
| 20260505202704 | 70 | 310 | 0.9 | 2.6 | 0.00 | 0.00 | 0.00 | 89 | 1017.5 |
| 20260505202204 | 70 | 342 | 0.0 | 2.6 | 0.00 | 0.00 | 0.00 | 89 | 1017.3 |
| 20260505201705 | 70 | 159 | 0.0 | 1.7 | 0.00 | 0.00 | 0.00 | 89 | 1017.4 |
| 20260505201205 | 70 | 2 | 0.9 | 1.7 | 0.00 | 0.00 | 0.00 | 89 | 1017.3 |
| 20260505200705 | 70 | 117 | 0.9 | 1.7 | 0.00 | 0.00 | 0.00 | 88 | 1017.4 |
| 20260505200204 | 70 | 218 | 0.0 | 1.7 | 0.00 | 0.00 | 0.00 | 88 | 1017.5 |
| 20260505195704 | 70 | 19 | 0.0 | 1.7 | 0.00 | 0.00 | 0.00 | 88 | 1017.6 |
| 20260505194704 | 70 | 35 | 0.0 | 4.3 | 0.00 | 0.00 | 0.00 | 88 | 1017.3 |
| 20260505194204 | 70 | 59 | 0.0 | 1.7 | 0.00 | 0.00 | 0.00 | 88 | 1017.4 |
| 20260505193704 | 70 | 247 | 0.0 | 1.7 | 0.00 | 0.00 | 0.00 | 88 | 1017.5 |
| 20260505193205 | 70 | 27 | 0.0 | 1.7 | 0.00 | 0.00 | 0.00 | 88 | 1017.5 |
| 20260505192704 | 70 | 215 | 0.0 | 1.7 | 0.00 | 0.00 | 0.00 | 87 | 1017.6 |
| 20260505192204 | 70 | 202 | 0.9 | 1.7 | 0.00 | 0.00 | 0.00 | 87 | 1017.6 |
| 20260505191704 | 70 | 303 | 0.9 | 1.7 | 0.00 | 0.00 | 0.00 | 87 | 1017.6 |
| 20260505191203 | 71 | 349 | 0.9 | 1.7 | 0.00 | 0.00 | 0.00 | 87 | 1017.6 |
| 20260505190204 | 71 | 43 | 0.0 | 4.3 | 0.00 | 0.00 | 0.00 | 87 | 1017.6 |
| 20260505185204 | 71 | 313 | 0.0 | 2.6 | 0.00 | 0.00 | 0.00 | 87 | 1017.6 |
| 20260505184704 | 71 | 37 | 1.7 | 2.6 | 0.00 | 0.00 | 0.00 | 87 | 1017.6 |
| 20260505184205 | 71 | 223 | 0.9 | 2.6 | 0.00 | 0.00 | 0.00 | 87 | 1017.6 |
| 20260505183705 | 71 | 21 | 0.9 | 2.6 | 0.00 | 0.00 | 0.00 | 87 | 1017.6 |
| 20260505183204 | 70 | 340 | 1.7 | 2.6 | 0.00 | 0.00 | 0.00 | 87 | 1017.6 |
| 20260505181704 | 71 | 180 | 0.9 | 1.7 | 0.00 | 0.00 | 0.00 | 86 | 1017.6 |
| 20260505181204 | 71 | 102 | 0.0 | 1.7 | 0.00 | 0.00 | 0.00 | 86 | 1017.5 |
| 20260505180704 | 71 | 267 | 0.9 | 1.7 | 0.00 | 0.00 | 0.00 | 85 | 1017.6 |
| 20260505180205 | 71 | 1 | 0.0 | 1.7 | 0.00 | 0.00 | 0.00 | 85 | 1017.3 |
| 20260505175704 | 71 | 159 | 0.9 | 2.6 | 0.00 | 0.00 | 0.00 | 85 | 1017.3 |
| 20260505175204 | 71 | 194 | 0.9 | 4.3 | 0.00 | 0.00 | 0.00 | 85 | 1017.3 |
| 20260505174704 | 71 | 134 | 1.7 | 4.3 | 0.00 | 0.00 | 0.00 | 85 | 1017.6 |
| 20260505174204 | 71 | 102 | 0.9 | 2.6 | 0.00 | 0.00 | 0.00 | 85 | 1017.6 |
| 20260505173704 | 71 | 70 | 0.9 | 2.6 | 0.00 | 0.00 | 0.00 | 84 | 1017.6 |
| 20260505173204 | 71 | 84 | 1.7 | 2.6 | 0.00 | 0.00 | 0.00 | 84 | 1017.4 |
| 20260505172705 | 71 | 94 | 1.7 | 4.3 | 0.00 | 0.00 | 0.00 | 84 | 1017.6 |
| 20260505171706 | 71 | 117 | 0.9 | 7.0 | 0.00 | 0.00 | 0.00 | 83 | 1017.6 |
| 20260505171204 | 71 | 73 | 1.7 | 7.0 | 0.00 | 0.00 | 0.00 | 83 | 1017.3 |
| 20260505170704 | 71 | 66 | 1.7 | 4.3 | 0.00 | 0.00 | 0.00 | 83 | 1017.4 |
| 20260505170204 | 71 | 128 | 1.7 | 4.3 | 0.00 | 0.00 | 0.00 | 82 | 1017.3 |
| 20260505165705 | 72 | 130 | 2.6 | 5.2 | 0.00 | 0.00 | 0.00 | 82 | 1017.3 |
| 20260505165205 | 72 | 83 | 0.9 | 7.0 | 0.00 | 0.00 | 0.00 | 82 | 1017.3 |
| 20260505164705 | 72 | 128 | 2.6 | 7.0 | 0.00 | 0.00 | 0.00 | 82 | 1017.0 |
| 20260505164204 | 72 | 155 | 3.5 | 7.8 | 0.00 | 0.00 | 0.00 | 82 | 1016.9 |
| 20260505163704 | 72 | 90 | 1.7 | 6.1 | 0.00 | 0.00 | 0.00 | 82 | 1016.9 |
| 20260505162204 | 72 | 134 | 2.6 | 5.2 | 0.00 | 0.00 | 0.00 | 81 | 1016.9 |
| 20260505161704 | 72 | 149 | 2.6 | 6.1 | 0.00 | 0.00 | 0.00 | 81 | 1016.9 |
| 20260505161205 | 72 | 288 | 1.7 | 7.8 | 0.00 | 0.00 | 0.00 | 80 | 1016.9 |
| 20260505160204 | 72 | 107 | 0.9 | 5.2 | 0.00 | 0.00 | 0.00 | 80 | 1016.9 |
| 20260505153205 | 72 | 126 | 4.3 | 7.8 | 0.00 | 0.00 | 0.00 | 80 | 1016.5 |
| 20260505152704 | 72 | 106 | 2.6 | 6.1 | 0.00 | 0.00 | 0.00 | 81 | 1016.7 |
| 20260505152204 | 72 | 84 | 0.9 | 7.0 | 0.00 | 0.00 | 0.00 | 81 | 1016.5 |
| 20260505151705 | 72 | 169 | 1.7 | 7.0 | 0.00 | 0.00 | 0.00 | 81 | 1016.5 |
| 20260505140204 | 73 | 116 | 2.6 | 7.8 | 0.00 | 0.00 | 0.00 | 78 | 1015.9 |
| 20260505130205 | 75 | 128 | 2.6 | 11.3 | 0.00 | 0.00 | 0.00 | 72 | 1015.5 |
| 20260505124704 | 76 | 127 | 3.5 | 7.8 | 0.00 | 0.00 | 0.00 | 70 | 1015.5 |
| 20260505123704 | 76 | 141 | 4.3 | 12.2 | 0.00 | 0.00 | 0.00 | 70 | 1015.2 |
| 20260505123204 | 77 | 142 | 4.3 | 12.2 | 0.00 | 0.00 | 0.00 | 67 | 1015.2 |
| 20260505122704 | 77 | 91 | 4.3 | 7.0 | 0.00 | 0.00 | 0.00 | 68 | 1015.2 |
| 20260505122205 | 77 | 130 | 2.6 | 6.1 | 0.00 | 0.00 | 0.00 | 67 | 1015.0 |
| 20260505121705 | 77 | 114 | 4.3 | 8.7 | 0.00 | 0.00 | 0.00 | 65 | 1015.2 |
| 20260505121205 | 77 | 306 | 4.3 | 7.8 | 0.00 | 0.00 | 0.00 | 64 | 1014.9 |
| 20260505120704 | 78 | 270 | 1.7 | 8.7 | 0.00 | 0.00 | 0.00 | 65 | 1015.2 |
| 20260505120204 | 78 | 104 | 5.2 | 8.7 | 0.00 | 0.00 | 0.00 | 65 | 1015.1 |
| 20260505115705 | 78 | 100 | 3.5 | 7.8 | 0.00 | 0.00 | 0.00 | 65 | 1015.1 |
| 20260505115203 | 78 | 49 | 2.6 | 8.7 | 0.00 | 0.00 | 0.00 | 64 | 1015.2 |
| 20260505114704 | 78 | 114 | 4.3 | 8.7 | 0.00 | 0.00 | 0.00 | 63 | 1015.1 |
| 20260505114204 | 78 | 131 | 4.3 | 7.8 | 0.00 | 0.00 | 0.00 | 63 | 1015.0 |
| 20260505113704 | 78 | 238 | 2.6 | 10.4 | 0.00 | 0.00 | 0.00 | 62 | 1014.9 |
| 20260505112704 | 79 | 133 | 3.5 | 7.8 | 0.00 | 0.00 | 0.00 | 62 | 1014.6 |
| 20260505112204 | 78 | 18 | 2.6 | 8.7 | 0.00 | 0.00 | 0.00 | 61 | 1014.9 |
| 20260505111705 | 79 | 143 | 3.5 | 8.7 | 0.00 | 0.00 | 0.00 | 60 | 1014.9 |
| 20260505111204 | 80 | 112 | 3.5 | 10.4 | 0.00 | 0.00 | 0.00 | 59 | 1014.7 |
| 20260505110704 | 80 | 57 | 3.5 | 10.4 | 0.00 | 0.00 | 0.00 | 57 | 1014.5 |
| 20260505102205 | 81 | 59 | 1.7 | 8.7 | 0.00 | 0.00 | 0.00 | 58 | 1014.6 |
| 20260505101704 | 80 | 316 | 4.3 | 8.7 | 0.00 | 0.00 | 0.00 | 57 | 1014.6 |
| 20260505101204 | 80 | 130 | 4.3 | 7.8 | 0.00 | 0.00 | 0.00 | 58 | 1014.9 |
| 20260505100704 | 81 | 115 | 4.3 | 10.4 | 0.00 | 0.00 | 0.00 | 58 | 1014.9 |
| 20260505100204 | 80 | 139 | 2.6 | 10.4 | 0.00 | 0.00 | 0.00 | 59 | 1014.8 |
| 20260505095706 | 81 | 122 | 2.6 | 8.7 | 0.00 | 0.00 | 0.00 | 58 | 1014.7 |
| 20260505095205 | 81 | 125 | 2.6 | 8.7 | 0.00 | 0.00 | 0.00 | 60 | 1014.8 |
| 20260505094704 | 81 | 90 | 3.5 | 7.8 | 0.00 | 0.00 | 0.00 | 60 | 1014.7 |
| 20260505093704 | 81 | 141 | 3.5 | 7.0 | 0.00 | 0.00 | 0.00 | 60 | 1014.9 |
| 20260505093206 | 81 | 122 | 2.6 | 7.8 | 0.00 | 0.00 | 0.00 | 59 | 1015.1 |
| 20260505092704 | 81 | 155 | 5.2 | 7.8 | 0.00 | 0.00 | 0.00 | 59 | 1015.0 |
| 20260505092204 | 81 | 98 | 2.6 | 7.8 | 0.00 | 0.00 | 0.00 | 61 | 1015.1 |
| 20260505091204 | 80 | 185 | 3.5 | 8.7 | 0.00 | 0.00 | 0.00 | 60 | 1015.2 |
| 20260505090704 | 80 | 290 | 3.5 | 8.7 | 0.00 | 0.00 | 0.00 | 63 | 1014.9 |
| 20260505090204 | 80 | 124 | 4.3 | 11.3 | 0.00 | 0.00 | 0.00 | 63 | 1015.2 |
| 20260505085704 | 81 | 237 | 4.3 | 6.1 | 0.00 | 0.00 | 0.00 | 61 | 1015.2 |
| 20260505085205 | 81 | 329 | 1.7 | 13.0 | 0.00 | 0.00 | 0.00 | 62 | 1015.2 |
| 20260505084704 | 82 | 179 | 4.3 | 10.4 | 0.00 | 0.00 | 0.00 | 61 | 1015.2 |
| 20260505084204 | 81 | 19 | 2.6 | 6.1 | 0.00 | 0.00 | 0.00 | 62 | 1015.4 |
| 20260505083704 | 81 | 129 | 3.5 | 10.4 | 0.00 | 0.00 | 0.00 | 61 | 1015.3 |
| 20260505083204 | 81 | 359 | 2.6 | 10.4 | 0.00 | 0.00 | 0.00 | 60 | 1015.5 |
| 20260505082704 | 81 | 212 | 3.5 | 10.4 | 0.00 | 0.00 | 0.00 | 60 | 1015.6 |
| 20260505082204 | 81 | 103 | 2.6 | 7.8 | 0.00 | 0.00 | 0.00 | 60 | 1015.6 |
| 20260505081704 | 81 | 102 | 3.5 | 7.8 | 0.00 | 0.00 | 0.00 | 61 | 1015.8 |
| 20260505081204 | 80 | 237 | 2.6 | 10.4 | 0.00 | 0.00 | 0.00 | 61 | 1015.9 |
| 20260505080705 | 80 | 131 | 3.5 | 7.8 | 0.00 | 0.00 | 0.00 | 62 | 1015.9 |
| 20260505080205 | 79 | 301 | 6.1 | 7.8 | 0.00 | 0.00 | 0.00 | 62 | 1015.9 |
| 20260505075704 | 80 | 99 | 3.5 | 11.3 | 0.00 | 0.00 | 0.00 | 61 | 1015.9 |
| 20260505075204 | 81 | 241 | 3.5 | 7.0 | 0.00 | 0.00 | 0.00 | 60 | 1015.9 |
| 20260505074704 | 80 | 36 | 2.6 | 10.4 | 0.00 | 0.00 | 0.00 | 61 | 1015.9 |
| 20260505074205 | 80 | 86 | 4.3 | 11.3 | 0.00 | 0.00 | 0.00 | 62 | 1015.9 |
| 20260505073204 | 79 | 135 | 7.0 | 13.0 | 0.00 | 0.00 | 0.00 | 63 | 1015.9 |
| 20260505072705 | 79 | 76 | 4.3 | 12.2 | 0.00 | 0.00 | 0.00 | 64 | 1015.9 |
| 20260505072204 | 79 | 105 | 6.1 | 12.2 | 0.00 | 0.00 | 0.00 | 63 | 1016.2 |
| 20260505071704 | 79 | 114 | 7.0 | 8.7 | 0.00 | 0.00 | 0.00 | 63 | 1016.2 |
| 20260505071204 | 80 | 103 | 4.3 | 11.3 | 0.00 | 0.00 | 0.00 | 63 | 1016.3 |
| 20260505070204 | 80 | 85 | 3.5 | 10.4 | 0.00 | 0.00 | 0.00 | 64 | 1016.4 |
| 20260505065704 | 80 | 133 | 4.3 | 8.7 | 0.00 | 0.00 | 0.00 | 64 | 1016.6 |
| 20260505065204 | 81 | 118 | 4.3 | 8.7 | 0.00 | 0.00 | 0.00 | 64 | 1016.4 |
| 20260505064705 | 80 | 140 | 2.6 | 7.8 | 0.00 | 0.00 | 0.00 | 65 | 1016.6 |
| 20260505064204 | 79 | 332 | 1.7 | 13.0 | 0.00 | 0.00 | 0.00 | 66 | 1016.6 |
| 20260505063704 | 79 | 107 | 4.3 | 7.8 | 0.00 | 0.00 | 0.00 | 67 | 1016.9 |
| 20260505063204 | 78 | 137 | 4.3 | 12.2 | 0.00 | 0.00 | 0.00 | 67 | 1016.8 |
| 20260505062204 | 80 | 140 | 7.0 | 11.3 | 0.00 | 0.00 | 0.00 | 64 | 1016.7 |
| 20260505061704 | 80 | 39 | 3.5 | 8.7 | 0.00 | 0.00 | 0.00 | 64 | 1016.8 |
| 20260505061204 | 80 | 110 | 2.6 | 7.0 | 0.00 | 0.00 | 0.00 | 64 | 1016.9 |
| 20260505060705 | 79 | 206 | 1.7 | 7.8 | 0.00 | 0.00 | 0.00 | 66 | 1016.9 |
| 20260505060205 | 79 | 132 | 4.3 | 8.7 | 0.00 | 0.00 | 0.00 | 65 | 1017.2 |
| 20260505055204 | 78 | 134 | 6.1 | 13.0 | 0.00 | 0.00 | 0.00 | 65 | 1017.3 |
| 20260505054205 | 79 | 68 | 2.6 | 8.7 | 0.00 | 0.00 | 0.00 | 64 | 1016.9 |
| 20260505053705 | 79 | 158 | 3.5 | 11.3 | 0.00 | 0.00 | 0.00 | 67 | 1017.3 |
| 20260505053204 | 78 | 133 | 4.3 | 11.3 | 0.00 | 0.00 | 0.00 | 66 | 1017.3 |
| 20260505052204 | 78 | 266 | 0.9 | 10.4 | 0.00 | 0.00 | 0.00 | 68 | 1017.3 |
| 20260505051704 | 78 | 130 | 2.6 | 10.4 | 0.00 | 0.00 | 0.00 | 68 | 1017.3 |
| 20260505051204 | 77 | 125 | 1.7 | 7.0 | 0.00 | 0.00 | 0.00 | 70 | 1017.4 |
| 20260505050704 | 77 | 103 | 2.6 | 8.7 | 0.00 | 0.00 | 0.00 | 70 | 1017.3 |
| 20260505050204 | 78 | 127 | 1.7 | 8.7 | 0.00 | 0.00 | 0.00 | 70 | 1017.3 |
| 20260505041704 | 78 | 155 | 1.7 | 4.3 | 0.00 | 0.00 | 0.00 | 68 | 1017.2 |
| 20260505041204 | 78 | 153 | 1.7 | 4.3 | 0.00 | 0.00 | 0.00 | 68 | 1017.0 |
| 20260505040704 | 78 | 180 | 1.7 | 4.3 | 0.00 | 0.00 | 0.00 | 69 | 1016.9 |
| 20260505040206 | 77 | 110 | 1.7 | 4.3 | 0.00 | 0.00 | 0.00 | 71 | 1016.8 |
| 20260505035705 | 77 | 128 | 1.7 | 4.3 | 0.00 | 0.00 | 0.00 | 70 | 1016.9 |
| 20260505034706 | 76 | 150 | 0.9 | 2.6 | 0.00 | 0.00 | 0.00 | 71 | 1016.6 |
| 20260505034204 | 77 | 193 | 2.6 | 2.6 | 0.00 | 0.00 | 0.00 | 69 | 1016.6 |
| 20260505033704 | 76 | 195 | 0.9 | 2.6 | 0.00 | 0.00 | 0.00 | 71 | 1016.7 |
| 20260505032706 | 74 | 166 | 0.9 | 1.7 | 0.00 | 0.00 | 0.00 | 75 | 1016.7 |
| 20260505032204 | 73 | 98 | 1.7 | 2.6 | 0.00 | 0.00 | 0.00 | 77 | 1016.7 |
| 20260505031704 | 72 | 5 | 0.9 | 4.3 | 0.00 | 0.00 | 0.00 | 80 | 1016.9 |
| 20260505031204 | 70 | 76 | 0.9 | 4.3 | 0.00 | 0.00 | 0.00 | 82 | 1016.9 |
| 20260505030704 | 70 | 330 | 0.9 | 1.7 | 0.00 | 0.00 | 0.00 | 84 | 1016.9 |
| 20260505030204 | 69 | 124 | 1.7 | 1.7 | 0.00 | 0.00 | 0.00 | 86 | 1016.9 |
| 20260505025205 | 68 | 345 | 0.9 | 2.6 | 0.00 | 0.00 | 0.00 | 88 | 1017.0 |
| 20260505024704 | 68 | 271 | 0.0 | 1.7 | 0.00 | 0.00 | 0.00 | 88 | 1017.0 |
| 20260505023705 | 68 | 317 | 1.7 | 2.6 | 0.00 | 0.00 | 0.00 | 89 | 1017.1 |
| 20260505022705 | 67 | 309 | 1.7 | 4.3 | 0.00 | 0.00 | 0.00 | 91 | 1016.9 |
| 20260505022205 | 67 | 129 | 1.7 | 2.6 | 0.00 | 0.00 | 0.00 | 92 | 1016.9 |
| 20260505021204 | 67 | 173 | 0.9 | 2.6 | 0.00 | 0.00 | 0.00 | 92 | 1016.6 |
| 20260505020705 | 67 | 247 | 0.9 | 2.6 | 0.00 | 0.00 | 0.00 | 92 | 1016.6 |
| 20260505020203 | 67 | 303 | 0.9 | 2.6 | 0.00 | 0.00 | 0.00 | 93 | 1016.7 |
| 20260505014706 | 66 | 65 | 0.9 | 2.6 | 0.00 | 0.00 | 0.00 | 95 | 1016.6 |
| 20260505014204 | 66 | 74 | 0.9 | 2.6 | 0.00 | 0.00 | 0.00 | 95 | 1016.6 |
| 20260505013704 | 65 | 152 | 0.9 | 2.6 | 0.00 | 0.00 | 0.00 | 95 | 1016.6 |
| 20260505013204 | 65 | 138 | 0.9 | 2.6 | 0.00 | 0.00 | 0.00 | 95 | 1016.6 |
| 20260505012704 | 65 | 225 | 0.9 | 2.6 | 0.00 | 0.00 | 0.00 | 95 | 1016.8 |
| 20260505012204 | 65 | 144 | 0.9 | 2.6 | 0.00 | 0.00 | 0.00 | 95 | 1016.6 |
| 20260505011704 | 65 | 145 | 1.7 | 2.6 | 0.00 | 0.00 | 0.00 | 95 | 1016.5 |
| 20260505011204 | 65 | 146 | 0.9 | 2.6 | 0.00 | 0.00 | 0.00 | 95 | 1016.6 |
| 20260505010704 | 65 | 142 | 0.9 | 2.6 | 0.00 | 0.00 | 0.00 | 95 | 1016.6 |
| 20260505010204 | 64 | 117 | 0.9 | 2.6 | 0.00 | 0.00 | 0.00 | 95 | 1016.6 |